[[{"header":{"parameterUnit":"m.s-1","parameterCategory":1,"la1":30.2991,"la2":30.254,"lo1":-89.0895,"lo2":-89.0444,"dy":0.0017,"dx":0.0017,"nx":28,"ny":28,"refTime":"2024-07-27T09:00:00:Z","depth":0,"parameterNumber":2,"parameterNumberName":"U-component_of_WINDS"},"data":[0,0,0,0,0,0,0,0,0,0,0,0,0,0,0,0,0,0,0,0,0,0,0,0,0,0,0,0,0,0,0,0,0,0,0,0,0,0,0,0,0,0,0,0,0,0,0,0,0,0,0,0,0,0,0,0,0,0,-1.1305,-1.1304,0,-1.1277,-1.1277,-1.1277,-1.1248,-1.1247,-1.1247,-1.1247,-1.1219,-1.1219,-1.1219,0,0,0,0,0,0,0,0,0,0,0,0,0,-1.1332,-1.1332,-1.1305,-1.1304,-1.1304,-1.1277,-1.1277,-1.1277,-1.1248,-1.1247,-1.1247,-1.1246,-1.122,-1.1219,-1.1219,0,0,0,0,0,0,0,0,0,0,0,0,0,-1.1314,-1.1332,-1.1305,-1.1286,-1.1284,-1.1278,-1.1277,-1.1277,-1.1248,-1.1247,-1.1247,-1.1246,-1.122,-1.1219,-1.1219,-1.1228,0,0,-1.1217,-1.1217,0,0,0,0,0,0,0,0,-1.1315,-1.1313,-1.1289,-1.1288,-1.1285,-1.1265,-1.1277,-1.126,-1.1248,-1.1262,-1.1247,-1.1246,-1.1235,-1.1233,-1.123,-1.1227,-1.1226,-1.1217,-1.1217,-1.1217,-1.1216,0,0,0,0,0,0,0,-1.1317,-1.1314,-1.1294,-1.1289,-1.1287,-1.128,-1.1277,-1.1274,-1.1252,-1.1261,-1.1258,-1.1256,-1.1234,-1.123,-1.1229,-1.1225,-1.1217,-1.1217,-1.1216,-1.1216,-1.1228,-1.1229,0,0,0,0,0,0,-1.1321,-1.1316,-1.1295,-1.1293,-1.1299,-1.128,-1.1276,-1.1272,-1.1252,-1.1249,-1.1256,-1.1254,-1.1231,-1.123,-1.1228,-1.1237,-1.1217,-1.1216,-1.1216,-1.1228,-1.1229,-1.1229,0,0,0,0,0,0,-1.1321,-1.1319,-1.1296,-1.1304,-1.13,-1.128,-1.1276,-1.1272,-1.1268,-1.1249,-1.1245,-1.1256,-1.1231,-1.1229,-1.1228,-1.1236,-1.1216,-1.1215,-1.1227,-1.1228,-1.1229,-1.1256,0,0,0,0,0,0,-1.1322,-1.1319,-1.1322,-1.1304,-1.13,-1.1296,-1.1277,-1.1272,-1.1268,-1.1265,-1.1248,-1.1244,-1.123,-1.1229,-1.1228,-1.1235,-1.1215,-1.1226,-1.1227,-1.1229,-1.1254,-1.1258,-1.1261,0,0,0,0,0,-1.1323,-1.1331,-1.1323,-1.132,-1.1303,-1.1297,-1.1295,-1.1278,-1.1268,-1.1271,-1.1259,-1.1245,-1.1235,-1.1229,-1.1227,-1.1235,-1.1226,-1.1227,-1.1228,-1.1253,-1.1257,-1.1261,0,0,0,0,0,0,-1.1351,-1.1329,-1.1319,-1.1321,-1.1311,-1.1292,-1.1295,-1.1283,-1.1275,-1.1273,-1.1253,-1.125,-1.1252,-1.1243,-1.1237,-1.1243,-1.1229,-1.123,-1.1248,-1.1252,-1.1255,-1.1257,-1.1215,0,0,0,0,0,-1.1358,-1.1354,-1.1335,-1.1339,-1.1334,-1.1316,-1.1312,-1.13,-1.1289,-1.1285,-1.1272,-1.1262,-1.1257,-1.1254,-1.1248,-1.1253,-1.1249,-1.1257,-1.1261,-1.1263,-1.1264,-1.1267,-1.127,-1.1234,-1.1234,-1.1234,0,0,-1.1371,-1.1358,-1.1357,-1.1344,-1.1335,-1.1332,-1.1312,-1.131,-1.1308,-1.1285,-1.1283,-1.1274,-1.1261,-1.1264,-1.1264,-1.1257,-1.1274,-1.1265,-1.1267,-1.1267,-1.1268,-1.1272,-1.1275,-1.1235,-1.1235,-1.1234,0,0,-1.1394,-1.1384,-1.1386,-1.1377,-1.1364,-1.1351,-1.1352,-1.1335,-1.1327,-1.1326,-1.1309,-1.1306,-1.1297,-1.1289,-1.1284,-1.1304,-1.1291,-1.1302,-1.1319,-1.1321,-1.1324,-1.1327,-1.1334,-1.1337,-1.1304,-1.1304,-1.1304,0,-1.1412,-1.1407,-1.1389,-1.1387,-1.1382,-1.1361,-1.1363,-1.1356,-1.1341,-1.1338,-1.133,-1.1319,-1.1309,-1.1309,-1.1314,-1.131,-1.1311,-1.1304,-1.1325,-1.1327,-1.1329,-1.1336,-1.1339,-1.1305,-1.1305,-1.1305,-1.1305,0,-1.143,-1.1426,-1.143,-1.1416,-1.1411,-1.1412,-1.1394,-1.1391,-1.138,-1.1369,-1.1367,-1.1355,-1.1346,-1.1345,-1.1334,-1.1344,-1.134,-1.1329,-1.1314,-1.1335,-1.134,-1.1343,-1.1307,-1.1307,-1.1306,-1.1306,0,0,-1.1469,-1.1445,-1.1447,-1.144,-1.1424,-1.1421,-1.1421,-1.1412,-1.141,-1.1401,-1.14,-1.1394,-1.1383,-1.1377,-1.1365,-1.1367,-1.1384,-1.1356,-1.1355,-1.1361,-1.1394,-1.1403,-1.1406,-1.1376,-1.1376,-1.1376,-1.1395,0,-1.1488,-1.1486,-1.147,-1.1473,-1.147,-1.145,-1.145,-1.144,-1.143,-1.1425,-1.1414,-1.1409,-1.1396,-1.1392,-1.1394,-1.1382,-1.139,-1.138,-1.1375,-1.1375,-1.1378,-1.1409,-1.1417,-1.1436,-1.1397,-1.1398,-1.1398,0,-1.1511,-1.1503,-1.1505,-1.1489,-1.1487,-1.1487,-1.1478,-1.1474,-1.1463,-1.1455,-1.1449,-1.1435,-1.1434,-1.1421,-1.1419,-1.1412,-1.1409,-1.1403,-1.1403,-1.1402,-1.1387,-1.1408,-1.1441,-1.1444,-1.1401,-1.1401,-1.1401,0,-1.1539,-1.1529,-1.1529,-1.1524,-1.1505,-1.1506,-1.1498,-1.1486,-1.1482,-1.1474,-1.1471,-1.1463,-1.1459,-1.1453,-1.1438,-1.143,-1.1438,-1.1424,-1.1432,-1.1432,-1.1434,-1.1434,-1.1467,-1.1433,-1.1433,-1.1433,-1.1433,0,-1.1562,-1.1564,-1.1541,-1.1541,-1.1543,-1.1525,-1.1528,-1.1518,-1.1507,-1.1505,-1.1488,-1.1487,-1.1467,-1.1463,-1.1451,-1.1452,-1.145,-1.1444,-1.1441,-1.1445,-1.1446,-1.1443,-1.1441,-1.1433,-1.1433,-1.1433,-1.1433,0,-1.1594,-1.1578,-1.1577,-1.156,-1.1555,-1.1557,-1.1542,-1.1542,-1.153,-1.1528,-1.1527,-1.1509,-1.1504,-1.1488,-1.1479,-1.1471,-1.1475,-1.1469,-1.1479,-1.1477,-1.1486,-1.1485,-1.1518,-1.1521,-1.1485,-1.1485,-1.1485,0,-1.161,-1.1611,-1.1593,-1.1591,-1.1584,-1.158,-1.1575,-1.1558,-1.1554,-1.1541,-1.1542,-1.1536,-1.1529,-1.1522,-1.1509,-1.1502,-1.1495,-1.1507,-1.1494,-1.1499,-1.1495,-1.1495,-1.1495,-1.151,-1.1511,-1.1511,-1.1511,0,-1.1639,-1.1632,-1.1626,-1.1618,-1.1613,-1.1606,-1.1597,-1.1596,-1.1577,-1.1573,-1.1568,-1.1563,-1.1554,-1.1548,-1.1539,-1.1531,-1.1518,-1.1516,-1.1517,-1.1522,-1.1527,-1.1524,-1.1486,-1.1515,-1.1514,-1.1514,-1.1514,-1.1514,-1.1663,-1.1664,-1.1651,-1.1646,-1.1638,-1.163,-1.1629,-1.1618,-1.1613,-1.1603,-1.1594,-1.1589,-1.1578,-1.1564,-1.1558,-1.1554,-1.1547,-1.1549,-1.155,-1.1551,-1.1553,-1.1528,-1.1552,-1.1552,-1.1552,-1.1552,-1.1552,0,-1.1692,-1.1683,-1.1678,-1.1667,-1.1663,-1.1651,-1.1641,-1.1639,-1.1635,-1.1625,-1.162,-1.1613,-1.1607,-1.1594,-1.1586,-1.1586,-1.158,-1.1585,-1.1585,-1.1583,-1.156,-1.1559,-1.159,-1.159,-1.159,-1.159,-1.159,-1.159,-1.1707,-1.1706,-1.1697,-1.1693,-1.1684,-1.1679,-1.1675,-1.1668,-1.1661,-1.1654,-1.1649,-1.164,-1.1629,-1.1621,-1.1615,-1.1611,-1.1609,-1.1616,-1.161,-1.1588,-1.1585,-1.1581,-1.158,-1.1615,-1.1615,-1.1633,-1.1634,-1.1634]},{"header":{"parameterUnit":"m.s-1","parameterCategory":1,"la1":30.2991,"la2":30.254,"lo1":-89.0895,"lo2":-89.0444,"dy":0.0017,"dx":0.0017,"nx":28,"ny":28,"refTime":"2024-07-27T09:00:00:Z","depth":0,"parameterNumber":3,"parameterNumberName":"V-component_of_WINDS"},"data":[0,0,0,0,0,0,0,0,0,0,0,0,0,0,0,0,0,0,0,0,0,0,0,0,0,0,0,0,0,0,0,0,0,0,0,0,0,0,0,0,0,0,0,0,0,0,0,0,0,0,0,0,0,0,0,0,0,0,1.0487,1.0487,0,1.0485,1.0485,1.0485,1.052,1.0521,1.0522,1.0523,1.0517,1.0516,1.0515,0,0,0,0,0,0,0,0,0,0,0,0,0,1.0517,1.0516,1.0487,1.0487,1.0487,1.0485,1.0485,1.0485,1.052,1.0521,1.0522,1.0523,1.0517,1.0516,1.0515,0,0,0,0,0,0,0,0,0,0,0,0,0,1.0508,1.0516,1.0487,1.0504,1.0506,1.0485,1.0485,1.0485,1.052,1.0521,1.0523,1.0524,1.0518,1.0516,1.0515,1.0476,0,0,1.051,1.0509,0,0,0,0,0,0,0,0,1.0509,1.0507,1.0502,1.0503,1.0505,1.0504,1.0493,1.0481,1.0519,1.0514,1.0523,1.0525,1.0511,1.051,1.0507,1.0476,1.0475,1.051,1.0509,1.0508,1.0508,0,0,0,0,0,0,0,1.0509,1.0507,1.0486,1.0501,1.0503,1.0511,1.0511,1.0491,1.0504,1.0515,1.0517,1.0517,1.0512,1.0508,1.0507,1.0475,1.051,1.0508,1.0507,1.0507,1.041,1.0409,0,0,0,0,0,0,1.0508,1.0508,1.0486,1.0486,1.051,1.0509,1.0509,1.0503,1.0505,1.0507,1.0516,1.0518,1.051,1.0509,1.0507,1.046,1.0508,1.0507,1.0506,1.0412,1.041,1.0408,0,0,0,0,0,0,1.0509,1.0506,1.0486,1.0497,1.0495,1.0507,1.0499,1.0502,1.0498,1.0506,1.0508,1.0509,1.0511,1.0509,1.0483,1.046,1.0506,1.0504,1.0414,1.0411,1.0409,1.0367,0,0,0,0,0,0,1.0509,1.0506,1.0492,1.0497,1.0495,1.0463,1.0498,1.0501,1.0495,1.0499,1.05,1.0501,1.0512,1.0485,1.0482,1.0459,1.0503,1.0416,1.0413,1.041,1.037,1.0363,1.0358,0,0,0,0,0,1.051,1.048,1.0491,1.0488,1.0478,1.0462,1.0461,1.0475,1.0493,1.0479,1.0484,1.0501,1.0464,1.0482,1.0478,1.0455,1.0417,1.0414,1.041,1.0373,1.0365,1.0358,0,0,0,0,0,0,1.0471,1.0481,1.0493,1.0464,1.0462,1.0468,1.045,1.0465,1.0457,1.0461,1.0478,1.0478,1.0449,1.045,1.047,1.0417,1.0444,1.0439,1.0417,1.0409,1.0403,1.0402,1.0502,0,0,0,0,0,1.0459,1.0446,1.0455,1.0428,1.0427,1.0439,1.0432,1.0443,1.0441,1.044,1.0444,1.044,1.0427,1.0418,1.0407,1.0371,1.0371,1.0353,1.0347,1.0341,1.0337,1.0316,1.0308,1.0396,1.0396,1.0396,0,0,1.0434,1.0437,1.0428,1.042,1.042,1.0405,1.0438,1.0421,1.0409,1.0438,1.0413,1.0415,1.0412,1.0381,1.0367,1.0381,1.0312,1.0337,1.0332,1.0331,1.0311,1.0303,1.0295,1.0394,1.0394,1.0395,0,0,1.038,1.0382,1.0359,1.0359,1.0358,1.0366,1.0361,1.0365,1.0367,1.0344,1.0364,1.035,1.0328,1.0325,1.0321,1.0265,1.028,1.0261,1.0226,1.0206,1.0199,1.0193,1.0171,1.0164,1.0256,1.0256,1.0256,0,1.0348,1.0328,1.0345,1.0327,1.0322,1.0348,1.0324,1.0322,1.0318,1.0313,1.0329,1.0301,1.0301,1.0269,1.0255,1.0251,1.0244,1.026,1.0199,1.0193,1.0187,1.0167,1.0159,1.0254,1.0254,1.0254,1.0255,0,1.0288,1.0273,1.0255,1.0251,1.0244,1.0223,1.0236,1.0226,1.0238,1.0244,1.0219,1.022,1.0208,1.0202,1.0213,1.017,1.0178,1.0196,1.0223,1.0176,1.0157,1.015,1.025,1.0251,1.0252,1.0253,0,0,1.0208,1.0214,1.0207,1.0205,1.0207,1.0195,1.0174,1.0165,1.0156,1.0152,1.0134,1.0115,1.0131,1.0126,1.0136,1.0119,1.0073,1.0139,1.0139,1.0125,1.0024,1.0009,1.0,1.0084,1.0082,1.0081,1.0024,0,1.0155,1.0121,1.0136,1.01,1.0086,1.0111,1.0092,1.009,1.0095,1.0083,1.0088,1.0074,1.0097,1.0094,1.0078,1.0082,1.0052,1.0086,1.0065,1.0064,1.0064,0.9991,0.9976,0.9921,1.0017,1.0015,1.0014,0,1.0088,1.0082,1.0045,1.0048,1.0042,1.0026,1.0018,1.0007,1.0004,1.0009,1.0003,1.0017,0.9996,1.0024,0.9993,1.0016,1.0008,1.0009,1.0007,1.0004,1.0035,0.9984,0.9905,0.9896,1.0003,1.0004,1.0005,0,1.0031,1.0014,0.9989,0.9987,0.9991,0.9978,0.9979,0.9978,0.9971,0.9964,0.9959,0.9949,0.9942,0.9933,0.9944,0.9964,0.9911,0.9941,0.9913,0.9912,0.99,0.99,0.9816,0.9897,0.9897,0.9897,0.9897,0,0.9969,0.9945,0.9964,0.9949,0.9922,0.9939,0.9912,0.9915,0.9914,0.9899,0.9919,0.9904,0.992,0.9905,0.9913,0.9886,0.9883,0.9885,0.9887,0.9882,0.9882,0.9877,0.988,0.9895,0.9896,0.9896,0.9896,0,0.9901,0.9913,0.9888,0.9894,0.9894,0.9874,0.9878,0.9863,0.987,0.985,0.9846,0.9856,0.984,0.985,0.9834,0.984,0.9803,0.9811,0.9804,0.9806,0.9777,0.9779,0.9685,0.9673,0.9763,0.9762,0.9762,0,0.986,0.9842,0.9846,0.9838,0.9838,0.9824,0.9817,0.9833,0.9824,0.982,0.9805,0.9792,0.9781,0.9754,0.9759,0.9746,0.9753,0.9721,0.9751,0.9747,0.9751,0.9751,0.9749,0.9715,0.9714,0.9713,0.9712,0,0.9785,0.9792,0.9782,0.9774,0.9765,0.9759,0.9754,0.9746,0.9761,0.9751,0.9735,0.9727,0.9711,0.9696,0.9686,0.9685,0.97,0.9703,0.9695,0.969,0.9686,0.9686,0.9786,0.9704,0.9705,0.9706,0.9706,0.9706,0.9729,0.9714,0.9714,0.9701,0.97,0.9695,0.9681,0.9686,0.9674,0.9663,0.9672,0.9654,0.9651,0.9638,0.9635,0.9619,0.9632,0.9622,0.9619,0.9616,0.9611,0.9689,0.9618,0.9618,0.9618,0.9618,0.9618,0,0.9654,0.9655,0.9644,0.9637,0.9627,0.9644,0.9639,0.9629,0.9613,0.9609,0.9599,0.9581,0.9566,0.957,0.9557,0.9543,0.955,0.9539,0.954,0.9539,0.9601,0.9608,0.9534,0.9534,0.9534,0.9534,0.9534,0.9534,0.9613,0.9588,0.9595,0.9569,0.957,0.9553,0.9548,0.9543,0.9541,0.9519,0.9508,0.9511,0.951,0.9497,0.9484,0.9485,0.9479,0.9465,0.9468,0.9526,0.9535,0.9542,0.9549,0.9464,0.9464,0.9407,0.9407,0.9406]}]]